Home > Weather > Sterling Heights > Past weeks

Flag for U.S.A. Weather for the Past 2 Weeks in Sterling Heights, Michigan, U.S.A.

Now
17 °F

Broken clouds.


Feels Like: 2 °F
Forecast: -3 / 18 °F
Wind: 14 mph from South

Location: Selfridge Air National Guard Base

Current Time: Feb 14, 2016 at 2:19:59 PM

Latest Report: Feb 14, 2016 at 1:58 PM


Visibility: 10 mi

Pressure: 30.42 "Hg

Humidity: 57%

Dew point: 4 °F

Location of Sterling HeightsLocation

Historic Weather in Sterling Heights — Graph

°F

Sterling Heights Temperature Yesterday

Maximum temperature yesterday: 12 °F (at 3:58 PM)
Minimum temperature yesterday: 1 °F (at 7:58 AM)
Average temperature yesterday: 6 °F

High & Low Weather Summary for the Past Weeks

 TemperatureHumidityPressure
High52 °F (Feb 3, 7:58 AM)100% (Jan 31, 3:58 PM)30.52 "Hg (Jan 31, 3:58 PM)
Low0 °F (Feb 14, 12:58 AM)39% (Feb 6, 1:58 PM)29.46 "Hg (Feb 3, 5:58 AM)
Average28 °F76%29.98 "Hg
* Reported Jan 30 12:58 PM — Feb 14 12:58 PM, Sterling Heights, Weather by CustomWeather, © 2016

Note: Actual official high and low records may vary slightly from our data, if they occured in-between our weather recording intervals... More about our weather records

Advertising

Sterling Heights Weather History for the Previous 24 Hours

 ConditionsComfort  
Time TempWeatherWind HumidityBarometerVisibility
12:58 PM
Sun, Feb 14
16 °FBroken clouds.10 mph53%30.43 "Hg10 mi
11:58 AM14 °FPartly sunny.7 mph63%30.47 "Hg10 mi
10:58 AM13 °FScattered clouds.6 mph70%30.50 "Hg10 mi
9:58 AM10 °FPassing clouds.No wind73%30.50 "Hg10 mi
8:58 AM4 °FPassing clouds.No wind85%30.52 "Hg10 mi
7:58 AM0 °FPassing clouds.1 mph84%30.51 "Hg10 mi
6:58 AM0 °FClear.2 mph84%30.50 "Hg10 mi
5:58 AM1 °FClear.1 mph85%30.50 "Hg10 mi
4:58 AM4 °FClear.5 mph82%30.51 "Hg10 mi
3:58 AM4 °FPassing clouds.3 mph82%30.51 "Hg10 mi
2:58 AM2 °FPassing clouds.5 mph82%30.51 "Hg10 mi
1:58 AM1 °FOvercast.No wind83%30.50 "Hg10 mi
12:58 AM0 °FClear.3 mph81%30.50 "Hg10 mi
11:58 PM
Sat, Feb 13
1 °FClear.1 mph71%30.51 "Hg10 mi
10:58 PM1 °FClear.No wind71%30.50 "Hg10 mi
9:58 PM2 °FClear.2 mph70%30.51 "Hg10 mi
8:58 PM6 °FClear.1 mph61%30.50 "Hg10 mi
7:58 PM5 °FPassing clouds.3 mph63%30.51 "Hg10 mi
6:58 PM9 °FPassing clouds.5 mph56%30.50 "Hg10 mi
5:58 PM9 °FPassing clouds.12 mph55%30.49 "Hg10 mi
4:58 PM11 °FPassing clouds.10 mph54%30.48 "Hg10 mi
3:58 PM12 °FPassing clouds.9 mph50%30.47 "Hg10 mi
2:58 PM11 °FScattered clouds.16 mph53%30.46 "Hg10 mi
Weather by CustomWeather, © 2016

See weather overviewHow to use our weather pages